FW2611 Weather Reports


Display with metric or nautical units.
time (UTC)temp
F
wind
direction
speed
MPH
gust
MPH
rain 1hr
in
rain 24hr
in
rain mn
in
humidity
%
barometer
mb
20260508221507 61 182 9.0 22.0 0.00 0.00 0.00 55 1012.9
20260508220009 61 225 10.0 23.0 0.00 0.00 0.00 53 1012.9
20260508214525 61 201 11.0 24.0 0.00 0.00 0.00 52 1013.0
20260508213019 61 207 13.0 24.0 0.00 0.00 0.00 51 1012.9
20260508211534 61 198 13.0 22.0 0.00 0.00 0.00 51 1013.0
20260508210008 61 211 14.0 22.0 0.00 0.00 0.00 52 1013.0
20260508204512 62 223 14.0 22.0 0.00 0.00 0.00 53 1013.0
20260508203017 62 220 10.0 20.0 0.00 0.00 0.00 51 1013.1
20260508201520 63 198 9.0 21.0 0.00 0.00 0.00 52 1013.3
20260508200026 63 236 9.0 22.0 0.00 0.00 0.00 49 1013.2
20260508194524 63 217 11.0 21.0 0.00 0.00 0.00 47 1013.4
20260508193013 63 190 11.0 22.0 0.00 0.00 0.00 50 1013.4
20260508191526 63 210 8.0 19.0 0.00 0.00 0.00 49 1013.4
20260508190023 63 187 12.0 26.0 0.00 0.00 0.00 50 1013.5
20260508184524 65 175 8.0 18.0 0.00 0.00 0.00 51 1013.8
20260508183022 68 244 7.0 19.0 0.00 0.00 0.00 31 1013.8
20260508181517 66 266 9.0 24.0 0.00 0.00 0.00 32 1013.7
20260508180020 67 246 12.0 24.0 0.00 0.00 0.00 32 1013.9
20260508174522 66 232 13.0 21.0 0.00 0.00 0.00 32 1013.8
20260508173024 66 204 8.0 19.0 0.00 0.00 0.00 34 1014.0
20260508171512 65 238 7.0 18.0 0.00 0.00 0.00 35 1014.1
20260508170020 65 244 7.0 20.0 0.00 0.00 0.00 38 1014.2
20260508164521 62 156 9.0 20.0 0.00 0.00 0.00 55 1014.3
20260508163027 63 352 4.0 16.0 0.00 0.00 0.00 49 1014.5
20260508161526 62 172 6.0 15.0 0.00 0.00 0.00 52 1014.7
20260508154539 62 157 5.0 13.0 0.00 0.00 0.00 49 1014.9
20260508153004 62 165 7.0 12.0 0.00 0.00 0.00 49 1015.0
20260508151512 62 173 4.0 10.0 0.00 0.00 0.00 50 1015.1
20260508150014 61 275 2.0 8.0 0.00 0.00 0.00 38 1015.1
20260508144516 59 281 2.0 11.0 0.00 0.00 0.00 39 1015.1
20260508143023 59 260 2.0 9.0 0.00 0.00 0.00 40 1015.3
20260508141506 58 308 4.0 8.0 0.00 0.00 0.00 42 1015.3
20260508140014 58 257 1.0 8.0 0.00 0.00 0.00 45 1015.4
20260508134515 57 286 3.0 10.0 0.00 0.00 0.00 48 1015.4
20260508133042 56 296 3.0 8.0 0.00 0.00 0.00 51 1015.4
20260508131523 55 347 4.0 9.0 0.00 0.00 0.00 53 1015.5
20260508130011 55 279 2.0 10.0 0.00 0.00 0.00 57 1015.4
20260508124512 54 340 7.0 10.0 0.00 0.00 0.00 59 1015.3
20260508123026 53 338 3.0 11.0 0.00 0.00 0.00 62 1015.3
20260508121525 52 331 5.0 10.0 0.00 0.00 0.00 64 1015.1
20260508120024 52 342 6.0 10.0 0.00 0.00 0.00 66 1014.9
20260508114508 51 352 8.0 12.0 0.00 0.00 0.00 67 1014.9
20260508113018 50 360 8.0 13.0 0.00 0.00 0.00 68 1014.8
20260508111515 50 343 8.0 14.0 0.00 0.00 0.00 69 1014.7
20260508110025 49 331 5.0 12.0 0.00 0.00 0.00 71 1014.5
20260508104525 49 330 5.0 11.0 0.00 0.00 0.00 72 1014.1
20260508103016 49 352 4.0 12.0 0.00 0.00 0.00 72 1013.9
20260508101518 49 346 6.0 13.0 0.00 0.00 0.00 72 1013.8
20260508100022 50 317 10.0 16.0 0.00 0.00 0.00 71 1013.6
20260508094523 50 334 8.0 18.0 0.00 0.00 0.00 71 1013.4
20260508093026 51 323 12.0 18.0 0.00 0.00 0.00 71 1013.0
20260508090033 51 324 5.0 11.0 0.00 0.00 0.00 77 1012.4
20260508084522 51 300 5.0 15.0 0.00 0.00 0.00 80 1012.1
20260508083024 52 269 7.0 14.0 0.00 0.00 0.00 81 1011.8
20260508081532 52 278 7.0 13.0 0.00 0.00 0.00 81 1011.4
20260508074525 53 302 5.0 12.0 0.00 0.00 0.00 78 1011.0
20260508073024 53 286 5.0 13.0 0.00 0.01 0.00 77 1010.8
20260508071529 53 252 7.0 14.0 0.00 0.01 0.00 76 1010.7
20260508070027 53 241 4.0 11.0 0.00 0.02 0.00 76 1010.6
20260508064530 53 267 6.0 12.0 0.00 0.06 0.00 76 1010.7
20260508063022 52 258 4.0 10.0 0.00 0.06 0.00 79 1010.7
20260508061532 51 237 2.0 7.0 0.00 0.06 0.00 82 1010.7
20260508060029 51 240 2.0 5.0 0.00 0.06 0.00 82 1010.8
20260508054516 51 250 2.0 5.0 0.00 0.06 0.00 82 1010.9
20260508053005 51 247 2.0 8.0 0.00 0.06 0.00 82 1010.8
20260508051503 51 239 2.0 8.0 0.00 0.06 0.00 82 1010.8
20260508050005 51 231 2.0 7.0 0.00 0.06 0.00 82 1010.9
20260508044510 51 232 3.0 7.0 0.00 0.06 0.00 83 1011.0
20260508043018 51 221 3.0 7.0 0.00 0.06 0.00 82 1010.9
20260508041504 51 242 3.0 9.0 0.00 0.06 0.00 83 1010.9
20260508040004 52 240 2.0 7.0 0.00 0.06 0.00 82 1010.9
20260508034515 52 242 2.0 8.0 0.00 0.06 0.06 82 1010.9
20260508033014 52 211 3.0 11.0 0.00 0.06 0.06 81 1010.8
20260508031519 52 243 4.0 9.0 0.00 0.06 0.06 80 1010.9
20260508030024 52 219 5.0 10.0 0.00 0.06 0.06 81 1010.8
20260508024516 53 237 4.0 11.0 0.00 0.06 0.06 82 1011.0
20260508023010 53 227 5.0 11.0 0.00 0.06 0.06 84 1010.8
20260508021519 53 219 5.0 11.0 0.00 0.06 0.06 82 1010.8
20260508020020 53 215 4.0 9.0 0.00 0.06 0.06 81 1010.7
20260508014525 53 211 6.0 11.0 0.00 0.06 0.06 80 1010.6
20260508013008 53 209 4.0 9.0 0.00 0.06 0.06 80 1010.6
20260508011512 53 211 3.0 10.0 0.00 0.06 0.06 81 1010.3
20260508010016 53 210 6.0 11.0 0.00 0.06 0.06 81 1010.2
20260508004536 53 208 5.0 11.0 0.00 0.06 0.06 81 1010.1
20260508003025 53 211 4.0 13.0 0.00 0.06 0.06 80 1009.9
20260508001524 53 194 6.0 12.0 0.00 0.06 0.06 79 1009.5
20260508000013 54 200 7.0 12.0 0.00 0.06 0.06 78 1009.7
20260507234514 54 167 7.0 13.0 0.00 0.06 0.06 77 1009.9
20260507233020 56 162 3.0 13.0 0.00 0.06 0.06 77 1009.5
20260507231523 56 181 9.0 15.0 0.00 0.06 0.06 74 1009.6
20260507230010 58 203 7.0 12.0 0.00 0.06 0.06 72 1009.3
20260507224514 59 173 5.0 15.0 0.00 0.06 0.06 73 1009.1
20260507223018 58 192 7.0 16.0 0.00 0.06 0.06 73 1009.2